Home   Weather   Greenwich Borough   Past weeks

Flag for United Kingdom Past Weather in Greenwich Borough, England, United Kingdom — Yesterday and Last 2 Weeks

Now
36 °F

Passing clouds.


Feels Like: 36 °F
Forecast: 33 / 40 °F
Wind: 1 mph from Southeast

Location: Northolt

Current Time: Jan 17, 2017 at 3:11:09 am

Latest Report: Jan 17, 2017 at 1:50 am


Visibility: 1 mi

Pressure: 30.51 "Hg

Humidity: 93%

Dew Point: 34 °F

Location of Greenwich BoroughLocation

Past Weather in Greenwich Borough — Graph

°F

Greenwich Borough Temperature Yesterday

Maximum temperature yesterday: 46 °F (at 12:50 am)
Minimum temperature yesterday: 37 °F (at 11:50 pm)
Average temperature yesterday: 41 °F

High & Low Weather Summary for the Past Weeks

 TemperatureHumidityPressure
High52 °F (Jan 7, 12:50 pm)100% (Jan 2, 9:50 pm)30.63 "Hg (Jan 2, 9:50 pm)
Low23 °F (Jan 6, 3:50 am)46% (Jan 11, 2:50 pm)29.33 "Hg (Jan 12, 5:50 pm)
Average40 °F87%30.19 "Hg
* Reported Jan 2 12:50 am — Jan 17 12:50 am, Greenwich Borough, Weather by CustomWeather, © 2017

Note: Actual official high and low records may vary slightly from our data, if they occured in-between our weather recording intervals... More about our weather records

Advertising

Greenwich Borough Weather History for the Previous 24 Hours

Scroll right to see more
 ConditionsComfort  
Time TempWeatherWind HumidityBarometerVisibility
12:50 am
Tue, Jan 17
37 °FOvercast.1 mph100%30.48 "Hg6 mi
11:50 pm
Mon, Jan 16
37 °FOvercast.No wind93%30.48 "HgN/A
10:50 pm39 °FMostly cloudy.1 mph93%30.45 "HgN/A
9:50 pm41 °FOvercast.1 mph87%30.45 "HgN/A
8:50 pm41 °FOvercast.2 mph87%30.45 "HgN/A
7:50 pm41 °FOvercast.2 mph87%30.42 "HgN/A
6:50 pm41 °FPassing clouds.5 mph87%30.39 "HgN/A
5:50 pm41 °FPassing clouds.3 mph87%30.39 "HgN/A
5:22 pm41 °FPartly cloudy.3 mph87%30.36 "HgN/A
4:50 pm41 °FPassing clouds.3 mph87%30.36 "HgN/A
3:50 pm41 °FBroken clouds.3 mph87%30.36 "HgN/A
2:50 pm41 °FMostly cloudy.6 mph87%30.36 "HgN/A
2:22 pm41 °FCloudy.5 mph87%30.33 "HgN/A
1:50 pm41 °FPartly sunny.6 mph87%30.33 "HgN/A
12:50 pm41 °FBroken clouds.5 mph93%30.33 "HgN/A
11:50 am41 °FRain. Mostly cloudy.5 mph93%30.33 "Hg3 mi
10:50 am41 °FLight rain. Broken clouds.3 mph93%30.33 "Hg4 mi
9:50 am41 °FDrizzle. Broken clouds.3 mph93%30.33 "Hg3 mi
8:50 am41 °FDrizzle. Partly sunny.3 mph100%30.33 "Hg2 mi
7:50 am41 °FLight rain. Partly cloudy.5 mph100%30.30 "Hg2 mi
7:32 am41 °FLight rain. Partly cloudy.5 mph100%30.30 "Hg2 mi
7:10 am41 °FPassing clouds.3 mph100%30.30 "Hg2 mi
6:53 am41 °FPassing clouds.2 mph100%30.30 "Hg4 mi
5:50 am41 °FPassing clouds.2 mph100%30.27 "Hg3 mi
4:50 am43 °FLow clouds.6 mph93%30.27 "Hg2 mi
3:50 am43 °FLow clouds.7 mph100%30.27 "Hg4 mi
Weather by CustomWeather, © 2017

See weather overviewHow to use our weather pages